Weather in Yazykova Pyatina

Russia / Republic of Mordovia     53°46′44″N   44°33′28″E
temp.,
°C
wind,
m/s
gust,
m/s
humid.,
%
clouds,
%
prec.,
mm/h
press.,
hPa
HPBL,
m
23 may, mon
mon2300:00+1n37865 0.0 1001175
03:00−1nnw36905 0.0 1001114
06:00+1nnw46725 0.0 1002304
09:00+5nnw555898 0.0 10021395
12:00+6nw5656100 0.1 10021472
15:00+6wnw6763100 0.1 10031278
18:00+5wnw476787 0.1 10041018
21:00+3sw4879100 0.1 1004153
24 may, tue
tue2400:00+2sw5128587 0.0 1004264
03:00+2wsw6128975 0.0 1004278
06:00+4sw51282100 0.0 1003330
09:00+8wnw6957100 0.0 10041135
12:00+8wnw6859100 0.0 10051505
15:00+6nw3484100 0.2 1007750
18:00+6wnw3586100 0.7 1008694
21:00+4nw348794 1.1 100976
25 may, wed
wed2500:00+1nnw34935 0.0 101064
03:00−1nw33915 0.0 101243
06:00+1nw46875 0.0 1013244
09:00+6nw567376 0.1 10131133
12:00+7wnw5663100 0.2 10141293
15:00+8wnw566073 0.4 10141446
18:00+8wnw457033 0.3 1015926
21:00+3w36855 0.3 101687
26 may, thu
thu2600:00+1w378714 0.0 1016101
03:00+2wsw378989 0.0 1016133
06:00+4wsw478112 0.0 1015256
09:00+9sw5663100 0.0 1013894
12:00+12wsw6861100 0.0 10111487
15:00+13sw697399 0.0 1009949
18:00+13sw3786100 0.7 1006255
21:00+11sw41197100 3.0 1005384
27 may, fri
fri2700:00+11sw51193100 0.8 1002433
03:00+9sw61297100 4.0 998674
06:00+10wsw71296100 2.6 997908
09:00+9sw71295100 2.9 997873
12:00+9w6996100 0.4 998656
15:00+10nw5996100 0.6 1000538
18:00+11nw5895100 0.2 1003466
21:00+9wsw369794 0.2 1005160